Private Wetterstation Wechselburg
Wetterdaten: Sonntag, 06.07.2014
Datum Zeit Temp. +2m Bodentemp. Temp.+5cm Temp. Wind Windchill X Diff Temp. Feuchte +2m Feuchte +5cm Sonnenschein Luftdruck Regen Wind Richtung Richtung Sonnenschein UV Taupunkt Windchill Windben
06.07.2014 00:00 20,0 C 27,0 C 20,0 C 19,9 C 19,6 C 0,0 C 74 % 77 % 0 % 1010,6 hPa 0,0 l/m 0,2 km/h (0 Bft) S 180 0 min 0,0 UV-I 15,2 C 19,6 C 0,0 km/h (0 Bft)
06.07.2014 00:05 20,1 C 27,0 C 19,9 C 19,9 C 19,6 C 0,0 C 74 % 76 % 0 % 1010,6 hPa 0,0 l/m 0,0 km/h (0 Bft) W-SW 247 0 min 0,0 UV-I 15,3 C 19,6 C 0,0 km/h (0 Bft)
06.07.2014 00:10 20,0 C 27,0 C 19,9 C 19,9 C 19,6 C 0,0 C 74 % 77 % 0 % 1010,6 hPa 0,0 l/m 0,0 km/h (0 Bft) SO 135 0 min 0,0 UV-I 15,2 C 19,6 C 0,0 km/h (0 Bft)
06.07.2014 00:15 20,0 C 27,0 C 19,8 C 19,9 C 19,6 C 0,0 C 74 % 77 % 0 % 1010,6 hPa 0,0 l/m 0,0 km/h (0 Bft) S 180 0 min 0,0 UV-I 15,2 C 19,6 C 0,0 km/h (0 Bft)
06.07.2014 00:20 19,9 C 27,0 C 19,8 C 19,8 C 19,5 C 0,0 C 74 % 77 % 0 % 1010,6 hPa 0,0 l/m 0,0 km/h (0 Bft) S-SW 202 0 min 0,0 UV-I 15,1 C 19,5 C 0,0 km/h (0 Bft)
06.07.2014 00:25 19,9 C 27,0 C 19,7 C 19,7 C 19,4 C 0,0 C 74 % 77 % 0 % 1010,6 hPa 0,0 l/m 0,0 km/h (0 Bft) W-NW 292 0 min 0,0 UV-I 15,1 C 19,4 C 0,0 km/h (0 Bft)
06.07.2014 00:30 19,8 C 27,0 C 19,7 C 19,6 C 19,3 C 0,0 C 74 % 77 % 0 % 1010,6 hPa 0,0 l/m 0,0 km/h (0 Bft) SW 225 0 min 0,0 UV-I 15,0 C 19,3 C 0,0 km/h (0 Bft)
06.07.2014 00:35 19,9 C 27,0 C 19,6 C 19,7 C 19,3 C 0,0 C 75 % 78 % 0 % 1010,6 hPa 0,0 l/m 0,0 km/h (0 Bft) S 180 0 min 0,0 UV-I 15,3 C 19,3 C 0,0 km/h (0 Bft)
06.07.2014 00:40 19,7 C 27,0 C 19,6 C 19,5 C 19,2 C 0,0 C 75 % 78 % 0 % 1010,8 hPa 0,0 l/m 0,0 km/h (0 Bft) SW 225 0 min 0,0 UV-I 15,1 C 19,2 C 0,0 km/h (0 Bft)
06.07.2014 00:45 19,7 C 27,0 C 19,7 C 19,5 C 19,2 C 0,0 C 76 % 78 % 0 % 1010,8 hPa 0,0 l/m 0,0 km/h (0 Bft) S-SW 202 0 min 0,0 UV-I 15,3 C 19,2 C 0,0 km/h (0 Bft)
06.07.2014 00:50 19,6 C 27,0 C 19,6 C 19,4 C 19,1 C 0,0 C 76 % 79 % 0 % 1010,8 hPa 0,0 l/m 0,0 km/h (0 Bft) S-SW 202 0 min 0,0 UV-I 15,2 C 19,1 C 0,0 km/h (0 Bft)
06.07.2014 00:55 19,7 C 27,0 C 19,5 C 19,5 C 19,0 C 0,0 C 76 % 78 % 0 % 1010,8 hPa 0,0 l/m 0,0 km/h (0 Bft) W-SW 247 0 min 0,0 UV-I 15,3 C 19,0 C 0,0 km/h (0 Bft)
06.07.2014 01:00 19,6 C 27,0 C 19,4 C 19,4 C 18,9 C 0,0 C 77 % 79 % 0 % 1010,9 hPa 0,0 l/m 0,0 km/h (0 Bft) S 180 0 min 0,0 UV-I 15,5 C 18,9 C 0,0 km/h (0 Bft)
06.07.2014 01:05 19,6 C 27,0 C 19,5 C 19,4 C 18,9 C 0,0 C 77 % 79 % 0 % 1010,9 hPa 0,0 l/m 0,2 km/h (0 Bft) S-SW 202 0 min 0,0 UV-I 15,5 C 18,9 C 0,0 km/h (0 Bft)
06.07.2014 01:10 19,5 C 27,0 C 19,5 C 19,3 C 18,9 C 0,0 C 77 % 79 % 0 % 1010,9 hPa 0,0 l/m 0,2 km/h (0 Bft) S-SW 202 0 min 0,0 UV-I 15,4 C 18,9 C 0,0 km/h (0 Bft)
06.07.2014 01:15 19,5 C 27,0 C 19,5 C 19,3 C 18,9 C 0,0 C 78 % 79 % 0 % 1010,9 hPa 0,0 l/m 0,0 km/h (0 Bft) S 180 0 min 0,0 UV-I 15,6 C 18,9 C 0,0 km/h (0 Bft)
06.07.2014 01:20 19,4 C 27,0 C 19,4 C 19,2 C 18,9 C 0,0 C 78 % 79 % 0 % 1010,9 hPa 0,0 l/m 0,2 km/h (0 Bft) W 270 0 min 0,0 UV-I 15,5 C 18,9 C 3,7 km/h (1 Bft)
06.07.2014 01:25 19,4 C 27,0 C 19,5 C 19,2 C 18,9 C 0,0 C 78 % 79 % 0 % 1010,9 hPa 0,0 l/m 0,2 km/h (0 Bft) N-NO 22 0 min 0,0 UV-I 15,5 C 18,9 C 0,0 km/h (0 Bft)
06.07.2014 01:30 19,5 C 27,0 C 19,3 C 19,3 C 18,8 C 0,0 C 78 % 79 % 0 % 1010,9 hPa 0,0 l/m 0,3 km/h (0 Bft) S 180 0 min 0,0 UV-I 15,6 C 18,8 C 2,4 km/h (1 Bft)
06.07.2014 01:35 19,5 C 27,0 C 19,3 C 19,2 C 18,7 C 0,0 C 78 % 80 % 0 % 1010,9 hPa 0,0 l/m 0,3 km/h (0 Bft) SW 225 0 min 0,0 UV-I 15,6 C 18,7 C 0,0 km/h (0 Bft)
06.07.2014 01:40 19,4 C 27,0 C 19,2 C 19,1 C 18,5 C 0,0 C 78 % 80 % 0 % 1010,9 hPa 0,0 l/m 0,2 km/h (0 Bft) SO 135 0 min 0,0 UV-I 15,5 C 18,5 C 0,0 km/h (0 Bft)
06.07.2014 01:45 19,3 C 27,0 C 19,2 C 19,0 C 18,4 C 0,0 C 78 % 80 % 0 % 1010,9 hPa 0,0 l/m 0,2 km/h (0 Bft) S-SO 157 0 min 0,0 UV-I 15,4 C 18,4 C 0,0 km/h (0 Bft)
06.07.2014 01:50 19,2 C 27,0 C 19,1 C 18,9 C 18,3 C 0,0 C 78 % 80 % 0 % 1010,9 hPa 0,0 l/m 0,0 km/h (0 Bft) S 180 0 min 0,0 UV-I 15,3 C 18,3 C 0,0 km/h (0 Bft)
06.07.2014 01:55 19,3 C 27,0 C 19,1 C 19,0 C 18,4 C 0,0 C 78 % 80 % 0 % 1010,9 hPa 0,0 l/m 0,0 km/h (0 Bft) S 180 0 min 0,0 UV-I 15,4 C 18,4 C 0,0 km/h (0 Bft)
06.07.2014 02:00 19,2 C 27,0 C 19,1 C 18,9 C 18,4 C 0,0 C 79 % 80 % 0 % 1010,9 hPa 0,0 l/m 0,0 km/h (0 Bft) S 180 0 min 0,0 UV-I 15,5 C 18,4 C 0,0 km/h (0 Bft)
06.07.2014 02:05 19,2 C 27,0 C 19,2 C 19,0 C 18,6 C 0,0 C 79 % 80 % 0 % 1010,9 hPa 0,0 l/m 0,2 km/h (0 Bft) W-SW 247 0 min 0,0 UV-I 15,5 C 18,6 C 0,0 km/h (0 Bft)
06.07.2014 02:10 19,1 C 27,0 C 19,2 C 19,0 C 18,7 C 0,0 C 79 % 80 % 0 % 1010,9 hPa 0,0 l/m 0,2 km/h (0 Bft) S 180 0 min 0,0 UV-I 15,4 C 18,7 C 0,0 km/h (0 Bft)
06.07.2014 02:15 19,2 C 27,0 C 19,2 C 19,1 C 18,8 C 0,0 C 79 % 80 % 0 % 1010,9 hPa 0,0 l/m 0,2 km/h (0 Bft) S 180 0 min 0,0 UV-I 15,5 C 18,8 C 2,7 km/h (1 Bft)
06.07.2014 02:20 19,2 C 27,0 C 19,3 C 19,1 C 18,9 C 0,0 C 79 % 80 % 0 % 1011,1 hPa 0,0 l/m 0,2 km/h (0 Bft) S 180 0 min 0,0 UV-I 15,5 C 18,9 C 0,0 km/h (0 Bft)
06.07.2014 02:25 19,3 C 27,0 C 19,2 C 19,2 C 19,0 C 0,0 C 79 % 80 % 0 % 1011,1 hPa 0,0 l/m 0,2 km/h (0 Bft) SO 135 0 min 0,0 UV-I 15,6 C 19,0 C 0,0 km/h (0 Bft)
06.07.2014 02:30 19,2 C 27,0 C 19,3 C 19,1 C 19,0 C 0,0 C 79 % 80 % 0 % 1011,1 hPa 0,0 l/m 0,2 km/h (0 Bft) S-SO 157 0 min 0,0 UV-I 15,5 C 19,0 C 0,0 km/h (0 Bft)
06.07.2014 02:35 19,2 C 27,0 C 19,2 C 19,1 C 19,0 C 0,0 C 79 % 80 % 0 % 1011,1 hPa 0,0 l/m 0,2 km/h (0 Bft) S 180 0 min 0,0 UV-I 15,5 C 19,0 C 0,0 km/h (0 Bft)
06.07.2014 02:40 19,2 C 27,0 C 19,2 C 19,2 C 19,1 C 0,0 C 79 % 80 % 0 % 1010,9 hPa 0,0 l/m 0,3 km/h (0 Bft) S 180 0 min 0,0 UV-I 15,5 C 19,1 C 0,0 km/h (0 Bft)
06.07.2014 02:45 19,3 C 27,0 C 19,3 C 19,2 C 19,1 C 0,0 C 79 % 80 % 0 % 1010,9 hPa 0,0 l/m 0,3 km/h (0 Bft) W-SW 247 0 min 0,0 UV-I 15,6 C 19,1 C 0,0 km/h (0 Bft)
06.07.2014 02:50 19,3 C 27,0 C 19,3 C 19,2 C 19,1 C 0,0 C 79 % 80 % 0 % 1010,9 hPa 0,0 l/m 0,2 km/h (0 Bft) S 180 0 min 0,0 UV-I 15,6 C 19,1 C 0,0 km/h (0 Bft)
06.07.2014 02:55 19,3 C 27,0 C 19,3 C 19,2 C 19,1 C 0,0 C 79 % 80 % 0 % 1010,9 hPa 0,0 l/m 0,0 km/h (0 Bft) S 180 0 min 0,0 UV-I 15,6 C 19,1 C 0,0 km/h (0 Bft)
06.07.2014 03:00 19,3 C 27,0 C 19,3 C 19,2 C 19,0 C 0,0 C 79 % 80 % 0 % 1010,4 hPa 0,0 l/m 0,2 km/h (0 Bft) S 180 0 min 0,0 UV-I 15,6 C 19,0 C 0,0 km/h (0 Bft)
06.07.2014 03:05 19,3 C 27,0 C 19,3 C 19,2 C 19,0 C 0,0 C 79 % 80 % 0 % 1010,4 hPa 0,0 l/m 0,3 km/h (0 Bft) SW 225 0 min 0,0 UV-I 15,6 C 19,0 C 1,6 km/h (1 Bft)
06.07.2014 03:10 19,3 C 27,0 C 19,2 C 19,2 C 18,9 C 0,0 C 79 % 80 % 0 % 1010,4 hPa 0,0 l/m 0,3 km/h (0 Bft) S-SW 202 0 min 0,0 UV-I 15,6 C 18,9 C 0,0 km/h (0 Bft)
06.07.2014 03:15 19,3 C 27,0 C 19,1 C 19,2 C 18,9 C 0,0 C 79 % 80 % 0 % 1010,4 hPa 0,0 l/m 0,2 km/h (0 Bft) SW 225 0 min 0,0 UV-I 15,6 C 18,9 C 0,0 km/h (0 Bft)
06.07.2014 03:20 19,2 C 27,0 C 19,1 C 19,1 C 18,9 C 0,0 C 79 % 80 % 0 % 1010,9 hPa 0,0 l/m 0,0 km/h (0 Bft) S 180 0 min 0,0 UV-I 15,5 C 18,9 C 0,0 km/h (0 Bft)
06.07.2014 03:25 19,2 C 27,0 C 19,1 C 19,1 C 18,9 C 0,0 C 79 % 80 % 0 % 1010,9 hPa 0,0 l/m 0,0 km/h (0 Bft) SW 225 0 min 0,0 UV-I 15,5 C 18,9 C 0,0 km/h (0 Bft)
06.07.2014 03:30 19,2 C 27,0 C 19,1 C 19,1 C 18,9 C 0,0 C 79 % 80 % 0 % 1010,9 hPa 0,0 l/m 0,0 km/h (0 Bft) S-SO 157 0 min 0,0 UV-I 15,5 C 18,9 C 0,0 km/h (0 Bft)
06.07.2014 03:35 19,2 C 27,0 C 19,1 C 19,1 C 18,9 C 0,0 C 79 % 80 % 0 % 1010,9 hPa 0,0 l/m 0,0 km/h (0 Bft) SW 225 0 min 0,0 UV-I 15,5 C 18,9 C 0,0 km/h (0 Bft)
06.07.2014 03:40 19,2 C 27,0 C 19,0 C 19,1 C 18,8 C 0,0 C 79 % 80 % 0 % 1010,9 hPa 0,0 l/m 0,0 km/h (0 Bft) S-SO 157 0 min 0,0 UV-I 15,5 C 18,8 C 0,0 km/h (0 Bft)
06.07.2014 03:45 19,3 C 27,0 C 19,0 C 19,1 C 18,8 C 0,0 C 79 % 80 % 0 % 1010,9 hPa 0,0 l/m 0,2 km/h (0 Bft) S 180 0 min 0,0 UV-I 15,6 C 18,8 C 0,0 km/h (0 Bft)
06.07.2014 03:50 19,3 C 27,0 C 19,1 C 19,1 C 18,7 C 0,0 C 79 % 80 % 0 % 1010,9 hPa 0,0 l/m 0,0 km/h (0 Bft) W-SW 247 0 min 0,0 UV-I 15,6 C 18,7 C 0,0 km/h (0 Bft)
06.07.2014 03:55 19,2 C 27,0 C 18,9 C 19,0 C 18,6 C 0,0 C 79 % 81 % 0 % 1010,9 hPa 0,0 l/m 0,0 km/h (0 Bft) SW 225 0 min 0,0 UV-I 15,5 C 18,6 C 0,0 km/h (0 Bft)
06.07.2014 04:00 19,1 C 27,0 C 18,9 C 18,9 C 18,5 C 0,0 C 79 % 81 % 0 % 1011,2 hPa 0,0 l/m 0,2 km/h (0 Bft) S 180 0 min 0,0 UV-I 15,4 C 18,5 C 2,3 km/h (1 Bft)
06.07.2014 04:05 19,1 C 27,0 C 18,9 C 18,9 C 18,5 C 0,0 C 79 % 81 % 0 % 1011,2 hPa 0,0 l/m 0,5 km/h (0 Bft) S-SO 157 0 min 0,0 UV-I 15,4 C 18,5 C 0,0 km/h (0 Bft)
06.07.2014 04:10 19,1 C 27,0 C 18,8 C 18,9 C 18,4 C 0,0 C 79 % 81 % 0 % 1011,2 hPa 0,0 l/m 0,5 km/h (0 Bft) NW 315 0 min 0,0 UV-I 15,4 C 18,4 C 2,3 km/h (1 Bft)
06.07.2014 04:15 19,1 C 27,0 C 18,9 C 18,8 C 18,2 C 0,0 C 79 % 81 % 0 % 1011,2 hPa 0,0 l/m 0,3 km/h (0 Bft) SW 225 0 min 0,0 UV-I 15,4 C 18,2 C 0,0 km/h (0 Bft)
06.07.2014 04:20 18,9 C 27,0 C 18,7 C 18,6 C 17,9 C 0,0 C 79 % 81 % 0 % 1011,1 hPa 0,0 l/m 0,2 km/h (0 Bft) SW 225 0 min 0,0 UV-I 15,2 C 17,9 C 0,0 km/h (0 Bft)
06.07.2014 04:25 18,8 C 27,0 C 18,7 C 18,4 C 17,7 C 0,0 C 80 % 81 % 0 % 1011,1 hPa 0,0 l/m 0,0 km/h (0 Bft) O-SO 112 0 min 0,0 UV-I 15,3 C 17,7 C 0,0 km/h (0 Bft)
06.07.2014 04:30 18,7 C 27,0 C 18,4 C 18,3 C 17,5 C 0,0 C 80 % 81 % 0 % 1011,1 hPa 0,0 l/m 0,0 km/h (0 Bft) S-SW 202 0 min 0,0 UV-I 15,2 C 17,5 C 0,0 km/h (0 Bft)
06.07.2014 04:35 18,6 C 27,0 C 18,4 C 18,2 C 17,3 C 0,0 C 80 % 81 % 0 % 1011,1 hPa 0,0 l/m 0,0 km/h (0 Bft) S-SO 157 0 min 0,0 UV-I 15,1 C 17,3 C 0,0 km/h (0 Bft)
06.07.2014 04:40 18,5 C 27,0 C 18,3 C 18,0 C 17,1 C 0,0 C 80 % 82 % 0 % 1010,6 hPa 0,0 l/m 0,0 km/h (0 Bft) S 180 0 min 0,0 UV-I 15,0 C 17,1 C 0,0 km/h (0 Bft)
06.07.2014 04:45 18,5 C 27,0 C 18,1 C 18,0 C 17,0 C 0,0 C 80 % 81 % 0 % 1010,6 hPa 0,0 l/m 0,0 km/h (0 Bft) N-NW 337 0 min 0,0 UV-I 15,0 C 17,0 C 0,0 km/h (0 Bft)
06.07.2014 04:50 18,2 C 27,0 C 18,0 C 17,7 C 16,8 C 0,0 C 80 % 82 % 0 % 1010,6 hPa 0,0 l/m 0,0 km/h (0 Bft) O-NO 67 0 min 0,0 UV-I 14,7 C 16,8 C 0,0 km/h (0 Bft)
06.07.2014 04:55 18,2 C 27,0 C 17,9 C 17,7 C 16,8 C 0,0 C 81 % 82 % 0 % 1010,6 hPa 0,0 l/m 0,0 km/h (0 Bft) O-NO 67 0 min 0,0 UV-I 14,9 C 16,8 C 0,0 km/h (0 Bft)
06.07.2014 05:00 18,1 C 27,0 C 17,9 C 17,6 C 16,6 C 0,0 C 81 % 82 % 0 % 1011,2 hPa 0,0 l/m 0,0 km/h (0 Bft) S 180 0 min 0,0 UV-I 14,8 C 16,6 C 0,0 km/h (0 Bft)
06.07.2014 05:05 18,0 C 27,0 C 17,7 C 17,5 C 16,5 C 0,0 C 81 % 83 % 0 % 1011,2 hPa 0,0 l/m 0,0 km/h (0 Bft) W 270 0 min 0,0 UV-I 14,7 C 16,5 C 0,0 km/h (0 Bft)
06.07.2014 05:10 17,8 C 27,0 C 17,9 C 17,4 C 16,5 C 0,0 C 82 % 83 % 0 % 1011,2 hPa 0,0 l/m 0,2 km/h (0 Bft) S-SW 202 0 min 0,0 UV-I 14,7 C 16,5 C 0,0 km/h (0 Bft)
06.07.2014 05:15 17,9 C 27,0 C 17,8 C 17,4 C 16,5 C 0,0 C 82 % 83 % 0 % 1011,2 hPa 0,0 l/m 0,2 km/h (0 Bft) SW 225 0 min 0,0 UV-I 14,8 C 16,5 C 0,0 km/h (0 Bft)
06.07.2014 05:20 17,6 C 27,0 C 17,7 C 17,2 C 16,5 C 0,0 C 82 % 83 % 0 % 1011,2 hPa 0,0 l/m 0,0 km/h (0 Bft) SO 135 0 min 0,0 UV-I 14,5 C 16,5 C 0,0 km/h (0 Bft)
06.07.2014 05:25 17,7 C 27,0 C 17,6 C 17,3 C 16,5 C 0,0 C 83 % 83 % 0 % 1011,2 hPa 0,0 l/m 0,0 km/h (0 Bft) O-NO 67 0 min 0,0 UV-I 14,8 C 16,5 C 0,0 km/h (0 Bft)
06.07.2014 05:30 17,5 C 27,0 C 17,5 C 17,2 C 16,5 C 0,0 C 83 % 83 % 0 % 1011,2 hPa 0,0 l/m 0,0 km/h (0 Bft) O 90 0 min 0,0 UV-I 14,6 C 16,5 C 0,0 km/h (0 Bft)
06.07.2014 05:35 17,4 C 27,0 C 17,4 C 17,1 C 16,5 C 0,0 C 83 % 83 % 0 % 1011,2 hPa 0,0 l/m 0,0 km/h (0 Bft) O-SO 112 0 min 0,0 UV-I 14,5 C 16,5 C 0,0 km/h (0 Bft)
06.07.2014 05:40 17,3 C 27,0 C 17,5 C 17,0 C 16,4 C 0,0 C 83 % 83 % 0 % 1011,5 hPa 0,0 l/m 0,0 km/h (0 Bft) NO 45 0 min 0,0 UV-I 14,4 C 16,4 C 0,0 km/h (0 Bft)
06.07.2014 05:45 17,2 C 27,0 C 17,5 C 17,0 C 16,5 C 0,0 C 83 % 83 % 0 % 1011,5 hPa 0,0 l/m 0,0 km/h (0 Bft) O 90 0 min 0,0 UV-I 14,3 C 16,5 C 0,0 km/h (0 Bft)
06.07.2014 05:50 17,1 C 27,0 C 17,5 C 16,9 C 16,5 C 0,0 C 84 % 84 % 0 % 1011,5 hPa 0,0 l/m 0,0 km/h (0 Bft) S 180 0 min 0,0 UV-I 14,4 C 16,5 C 0,0 km/h (0 Bft)
06.07.2014 05:55 17,1 C 27,0 C 17,3 C 16,9 C 16,5 C 0,0 C 84 % 83 % 0 % 1011,5 hPa 0,0 l/m 0,0 km/h (0 Bft) NO 45 0 min 0,0 UV-I 14,4 C 16,5 C 0,0 km/h (0 Bft)
06.07.2014 06:00 17,1 C 27,0 C 17,5 C 17,0 C 16,7 C 0,0 C 84 % 84 % 0 % 1011,1 hPa 0,0 l/m 0,0 km/h (0 Bft) W-NW 292 0 min 0,0 UV-I 14,4 C 16,7 C 0,0 km/h (0 Bft)
06.07.2014 06:05 16,9 C 27,0 C 17,7 C 16,9 C 16,8 C 0,0 C 84 % 84 % 0 % 1011,1 hPa 0,0 l/m 0,0 km/h (0 Bft) SW 225 0 min 0,0 UV-I 14,2 C 16,8 C 0,0 km/h (0 Bft)
06.07.2014 06:10 16,9 C 27,0 C 17,7 C 17,0 C 17,0 C 0,1 C 84 % 84 % 3 % 1011,1 hPa 0,0 l/m 0,0 km/h (0 Bft) SW 225 0 min 0,0 UV-I 14,2 C 17,0 C 0,0 km/h (0 Bft)
06.07.2014 06:15 16,9 C 27,0 C 17,8 C 17,1 C 17,1 C 0,2 C 84 % 84 % 5 % 1011,1 hPa 0,0 l/m 0,0 km/h (0 Bft) S-SW 202 0 min 0,0 UV-I 14,2 C 17,1 C 0,0 km/h (0 Bft)
06.07.2014 06:20 16,8 C 27,0 C 18,0 C 17,4 C 17,4 C 0,6 C 84 % 83 % 16 % 1011,6 hPa 0,0 l/m 0,0 km/h (0 Bft) S 180 0 min 0,0 UV-I 14,1 C 17,4 C 1,6 km/h (1 Bft)
06.07.2014 06:25 16,8 C 27,0 C 18,0 C 17,6 C 17,6 C 0,8 C 84 % 83 % 21 % 1011,6 hPa 0,0 l/m 0,0 km/h (0 Bft) W-SW 247 0 min 0,0 UV-I 14,1 C 17,6 C 0,0 km/h (0 Bft)
06.07.2014 06:30 16,9 C 27,0 C 18,3 C 17,9 C 17,9 C 1,0 C 84 % 84 % 26 % 1011,6 hPa 0,0 l/m 0,0 km/h (0 Bft) SW 225 0 min 0,0 UV-I 14,2 C 17,9 C 0,0 km/h (0 Bft)
06.07.2014 06:35 17,0 C 27,0 C 18,3 C 18,0 C 18,0 C 1,0 C 84 % 84 % 26 % 1011,6 hPa 0,0 l/m 0,2 km/h (0 Bft) O-SO 112 0 min 0,0 UV-I 14,3 C 18,0 C 0,0 km/h (0 Bft)
06.07.2014 06:40 17,1 C 27,0 C 18,5 C 18,4 C 18,4 C 1,3 C 84 % 83 % 34 % 1011,7 hPa 0,0 l/m 0,2 km/h (0 Bft) W 270 0 min 0,0 UV-I 14,4 C 18,4 C 1,8 km/h (1 Bft)
06.07.2014 06:45 17,1 C 27,0 C 18,5 C 18,5 C 18,5 C 1,4 C 84 % 83 % 37 % 1011,7 hPa 0,0 l/m 0,0 km/h (0 Bft) W 270 0 min 0,0 UV-I 14,4 C 18,5 C 0,0 km/h (0 Bft)
06.07.2014 06:50 17,2 C 27,0 C 18,7 C 18,9 C 18,9 C 1,7 C 84 % 83 % 45 % 1011,7 hPa 0,0 l/m 0,2 km/h (0 Bft) S 180 0 min 0,0 UV-I 14,5 C 18,9 C 1,8 km/h (1 Bft)
06.07.2014 06:55 17,5 C 27,0 C 18,8 C 18,9 C 18,9 C 1,4 C 84 % 83 % 37 % 1011,7 hPa 0,0 l/m 0,0 km/h (0 Bft) S-SO 157 0 min 0,0 UV-I 14,8 C 18,9 C 0,0 km/h (0 Bft)
06.07.2014 07:00 17,7 C 27,0 C 19,0 C 19,3 C 19,3 C 1,6 C 84 % 82 % 42 % 1011,6 hPa 0,0 l/m 0,5 km/h (0 Bft) S 180 0 min 0,0 UV-I 15,0 C 19,3 C 0,0 km/h (0 Bft)
06.07.2014 07:05 17,8 C 27,0 C 19,3 C 20,3 C 20,3 C 2,5 C 84 % 82 % 66 % 1011,6 hPa 0,0 l/m 0,3 km/h (0 Bft) W-SW 247 0 min 0,0 UV-I 15,1 C 20,3 C 0,0 km/h (0 Bft)
06.07.2014 07:10 18,0 C 27,0 C 19,4 C 22,3 C 22,3 C 4,3 C 84 % 82 % 100 % 1011,6 hPa 0,0 l/m 0,2 km/h (0 Bft) S-SW 202 5 min 0,0 UV-I 15,3 C 22,3 C 1,6 km/h (1 Bft)
06.07.2014 07:15 18,3 C 27,0 C 19,4 C 22,7 C 22,7 C 4,4 C 84 % 81 % 100 % 1011,6 hPa 0,0 l/m 0,0 km/h (0 Bft) SW 225 5 min 0,0 UV-I 15,5 C 22,7 C 0,0 km/h (0 Bft)
06.07.2014 07:20 18,6 C 27,0 C 19,7 C 24,0 C 24,0 C 5,4 C 84 % 81 % 100 % 1011,4 hPa 0,0 l/m 0,2 km/h (0 Bft) W-SW 247 5 min 0,0 UV-I 15,8 C 24,0 C 0,0 km/h (0 Bft)
06.07.2014 07:25 19,0 C 27,0 C 19,9 C 25,0 C 25,0 C 6,0 C 83 % 81 % 100 % 1011,4 hPa 0,0 l/m 0,2 km/h (0 Bft) S 180 5 min 0,0 UV-I 16,0 C 25,0 C 0,0 km/h (0 Bft)
06.07.2014 07:30 19,6 C 27,0 C 20,3 C 27,0 C 27,0 C 7,4 C 83 % 81 % 100 % 1011,4 hPa 0,0 l/m 0,0 km/h (0 Bft) SW 225 5 min 0,0 UV-I 16,6 C 27,0 C 0,0 km/h (0 Bft)
06.07.2014 07:35 20,3 C 27,0 C 20,4 C 27,7 C 27,7 C 7,4 C 81 % 80 % 100 % 1011,4 hPa 0,0 l/m 0,0 km/h (0 Bft) O-NO 67 5 min 1,6 UV-I 16,9 C 27,7 C 0,0 km/h (0 Bft)
06.07.2014 07:40 20,9 C 27,0 C 20,5 C 26,8 C 26,8 C 5,9 C 79 % 80 % 100 % 1011,9 hPa 0,0 l/m 0,8 km/h (0 Bft) S-SW 202 5 min 0,0 UV-I 17,1 C 26,8 C 5,0 km/h (1 Bft)
06.07.2014 07:45 21,1 C 27,0 C 20,7 C 26,4 C 26,4 C 5,3 C 79 % 80 % 100 % 1011,9 hPa 0,0 l/m 0,6 km/h (0 Bft) N-NW 337 5 min 0,0 UV-I 17,3 C 26,4 C 0,0 km/h (0 Bft)
06.07.2014 07:50 21,3 C 27,0 C 20,8 C 27,1 C 27,1 C 5,8 C 78 % 79 % 100 % 1011,9 hPa 0,0 l/m 0,5 km/h (0 Bft) S-SW 202 5 min 0,0 UV-I 17,3 C 27,1 C 5,1 km/h (1 Bft)
06.07.2014 07:55 21,3 C 27,0 C 20,7 C 26,6 C 26,6 C 5,3 C 77 % 79 % 100 % 1011,9 hPa 0,0 l/m 0,6 km/h (0 Bft) S 180 5 min 0,0 UV-I 17,1 C 26,6 C 2,3 km/h (1 Bft)
06.07.2014 08:00 21,5 C 27,0 C 20,7 C 27,2 C 27,2 C 5,7 C 77 % 78 % 100 % 1011,9 hPa 0,0 l/m 0,5 km/h (0 Bft) W-NW 292 5 min 0,0 UV-I 17,3 C 27,2 C 0,0 km/h (0 Bft)
06.07.2014 08:05 21,9 C 27,0 C 20,8 C 28,7 C 28,7 C 6,8 C 77 % 79 % 100 % 1011,9 hPa 0,0 l/m 0,3 km/h (0 Bft) W 270 5 min 0,0 UV-I 17,7 C 28,7 C 0,0 km/h (0 Bft)
06.07.2014 08:10 22,5 C 27,0 C 21,1 C 30,2 C 30,2 C 7,7 C 75 % 78 % 100 % 1011,9 hPa 0,0 l/m 0,6 km/h (0 Bft) S-SO 157 5 min 0,0 UV-I 17,8 C 30,2 C 1,6 km/h (1 Bft)
06.07.2014 08:15 22,9 C 27,0 C 21,3 C 30,5 C 30,5 C 7,6 C 74 % 78 % 100 % 1011,9 hPa 0,0 l/m 0,8 km/h (0 Bft) S-SO 157 5 min 0,0 UV-I 18,0 C 30,5 C 1,9 km/h (1 Bft)
06.07.2014 08:20 23,1 C 27,0 C 21,5 C 29,1 C 29,1 C 6,0 C 72 % 78 % 100 % 1011,9 hPa 0,0 l/m 0,8 km/h (0 Bft) W-SW 247 5 min 0,0 UV-I 17,8 C 29,1 C 1,9 km/h (1 Bft)
06.07.2014 08:25 23,1 C 27,0 C 21,5 C 27,9 C 27,9 C 4,8 C 71 % 77 % 100 % 1011,9 hPa 0,0 l/m 0,6 km/h (0 Bft) S-SO 157 5 min 0,0 UV-I 17,5 C 27,9 C 0,0 km/h (0 Bft)
06.07.2014 08:30 23,0 C 27,0 C 21,5 C 28,3 C 28,3 C 5,3 C 72 % 77 % 100 % 1011,9 hPa 0,0 l/m 0,3 km/h (0 Bft) SO 135 5 min 0,0 UV-I 17,7 C 28,3 C 2,1 km/h (1 Bft)
06.07.2014 08:35 23,2 C 27,0 C 21,6 C 29,2 C 29,2 C 6,0 C 71 % 77 % 100 % 1011,9 hPa 0,0 l/m 0,3 km/h (0 Bft) SW 225 5 min 0,0 UV-I 17,6 C 29,2 C 0,0 km/h (0 Bft)
06.07.2014 08:40 23,6 C 27,0 C 21,5 C 31,5 C 31,5 C 7,9 C 71 % 77 % 100 % 1011,9 hPa 0,0 l/m 0,3 km/h (0 Bft) SW 225 5 min 0,0 UV-I 18,0 C 31,5 C 0,0 km/h (0 Bft)
06.07.2014 08:45 23,9 C 27,0 C 21,6 C 32,1 C 32,1 C 8,2 C 69 % 76 % 100 % 1011,9 hPa 0,0 l/m 0,6 km/h (0 Bft) S 180 5 min 0,0 UV-I 17,9 C 32,1 C 6,3 km/h (2 Bft)
06.07.2014 08:50 24,0 C 27,0 C 21,7 C 32,9 C 32,9 C 8,9 C 69 % 77 % 100 % 1011,9 hPa 0,0 l/m 0,8 km/h (0 Bft) W-SW 247 5 min 0,0 UV-I 18,0 C 32,9 C 2,6 km/h (1 Bft)
06.07.2014 08:55 24,3 C 27,0 C 21,9 C 33,5 C 33,5 C 9,2 C 68 % 77 % 100 % 1011,9 hPa 0,0 l/m 0,8 km/h (0 Bft) W-SW 247 5 min 0,0 UV-I 18,0 C 33,5 C 0,0 km/h (0 Bft)
06.07.2014 09:00 24,7 C 27,0 C 21,9 C 33,0 C 33,0 C 8,3 C 67 % 76 % 100 % 1011,9 hPa 0,0 l/m 0,8 km/h (0 Bft) W-SW 247 5 min 0,0 UV-I 18,1 C 33,0 C 3,5 km/h (1 Bft)
06.07.2014 09:05 24,6 C 27,0 C 21,9 C 32,8 C 32,8 C 8,2 C 66 % 76 % 100 % 1011,9 hPa 0,0 l/m 1,8 km/h (1 Bft) SW 225 5 min 0,0 UV-I 17,8 C 32,8 C 6,4 km/h (2 Bft)
06.07.2014 09:10 24,7 C 27,0 C 21,8 C 32,6 C 32,6 C 7,9 C 66 % 76 % 100 % 1011,9 hPa 0,0 l/m 1,8 km/h (1 Bft) N-NO 22 5 min 0,0 UV-I 17,9 C 32,6 C 8,5 km/h (2 Bft)
06.07.2014 09:15 24,7 C 27,0 C 21,9 C 32,6 C 32,6 C 7,9 C 65 % 75 % 100 % 1011,9 hPa 0,0 l/m 1,6 km/h (1 Bft) W-SW 247 5 min 0,0 UV-I 17,7 C 32,6 C 3,9 km/h (1 Bft)
06.07.2014 09:20 25,2 C 27,0 C 21,9 C 32,8 C 32,8 C 7,6 C 65 % 75 % 100 % 1012,0 hPa 0,0 l/m 1,3 km/h (1 Bft) S 180 5 min 0,0 UV-I 18,1 C 32,8 C 4,2 km/h (1 Bft)
06.07.2014 09:25 25,3 C 27,0 C 22,0 C 33,1 C 33,1 C 7,8 C 64 % 75 % 100 % 1012,0 hPa 0,0 l/m 1,4 km/h (1 Bft) SO 135 5 min 0,1 UV-I 18,0 C 33,1 C 3,7 km/h (1 Bft)
06.07.2014 09:30 25,3 C 27,0 C 22,1 C 31,7 C 31,7 C 6,4 C 63 % 75 % 100 % 1012,0 hPa 0,0 l/m 3,1 km/h (1 Bft) W-SW 247 5 min 0,1 UV-I 17,7 C 31,7 C 9,7 km/h (2 Bft)
06.07.2014 09:35 24,9 C 27,0 C 22,1 C 30,4 C 30,4 C 5,5 C 63 % 74 % 100 % 1012,0 hPa 0,0 l/m 3,2 km/h (1 Bft) W-SW 247 5 min 0,0 UV-I 17,4 C 30,4 C 5,1 km/h (1 Bft)
06.07.2014 09:40 24,5 C 27,0 C 22,1 C 27,7 C 27,7 C 3,2 C 64 % 74 % 84 % 1012,2 hPa 0,0 l/m 4,2 km/h (1 Bft) NW 315 0 min 0,0 UV-I 17,2 C 27,7 C 4,2 km/h (1 Bft)
06.07.2014 09:45 24,3 C 27,0 C 22,1 C 28,6 C 28,6 C 4,3 C 65 % 74 % 100 % 1012,2 hPa 0,0 l/m 4,0 km/h (1 Bft) NW 315 5 min 0,0 UV-I 17,3 C 28,6 C 5,1 km/h (1 Bft)
06.07.2014 09:50 24,3 C 27,0 C 22,3 C 30,2 C 30,2 C 5,9 C 65 % 74 % 100 % 1012,2 hPa 0,0 l/m 3,7 km/h (1 Bft) S-SW 202 5 min 0,0 UV-I 17,3 C 30,2 C 3,9 km/h (1 Bft)
06.07.2014 09:55 24,2 C 27,0 C 22,4 C 30,6 C 30,6 C 6,4 C 66 % 74 % 100 % 1012,2 hPa 0,0 l/m 3,2 km/h (1 Bft) W-SW 247 5 min 0,0 UV-I 17,4 C 30,6 C 0,0 km/h (0 Bft)
06.07.2014 10:00 24,3 C 27,0 C 22,6 C 32,3 C 32,3 C 8,0 C 65 % 74 % 100 % 1012,2 hPa 0,0 l/m 2,4 km/h (1 Bft) W 270 5 min 0,0 UV-I 17,3 C 32,3 C 9,8 km/h (2 Bft)
06.07.2014 10:05 24,3 C 27,0 C 22,5 C 31,9 C 31,9 C 7,6 C 65 % 74 % 100 % 1012,2 hPa 0,0 l/m 3,5 km/h (1 Bft) S 180 5 min 0,0 UV-I 17,3 C 31,9 C 4,2 km/h (1 Bft)
06.07.2014 10:10 24,2 C 27,0 C 22,7 C 32,2 C 32,2 C 8,0 C 65 % 74 % 100 % 1012,2 hPa 0,0 l/m 3,7 km/h (1 Bft) W 270 5 min 0,0 UV-I 17,2 C 32,2 C 7,4 km/h (2 Bft)
06.07.2014 10:15 24,3 C 27,0 C 22,6 C 32,2 C 32,2 C 7,9 C 65 % 73 % 100 % 1012,2 hPa 0,0 l/m 3,7 km/h (1 Bft) S-SW 202 5 min 0,0 UV-I 17,3 C 32,2 C 7,7 km/h (2 Bft)
06.07.2014 10:20 24,4 C 27,0 C 22,9 C 32,0 C 32,0 C 7,6 C 65 % 73 % 100 % 1012,0 hPa 0,0 l/m 4,2 km/h (1 Bft) O-NO 67 5 min 0,0 UV-I 17,4 C 32,0 C 3,1 km/h (1 Bft)
06.07.2014 10:25 24,6 C 27,0 C 23,1 C 32,8 C 32,8 C 8,2 C 65 % 72 % 100 % 1012,0 hPa 0,0 l/m 2,4 km/h (1 Bft) N-NO 22 5 min 0,0 UV-I 17,6 C 32,8 C 0,0 km/h (0 Bft)
06.07.2014 10:30 24,8 C 27,0 C 23,3 C 34,2 C 34,2 C 9,4 C 64 % 72 % 100 % 1012,0 hPa 0,0 l/m 1,0 km/h (0 Bft) S-SO 157 5 min 0,0 UV-I 17,5 C 34,2 C 2,3 km/h (1 Bft)
06.07.2014 10:35 25,0 C 27,0 C 23,2 C 34,5 C 34,5 C 9,5 C 64 % 72 % 100 % 1012,0 hPa 0,0 l/m 0,8 km/h (0 Bft) SO 135 5 min 0,0 UV-I 17,7 C 34,5 C 0,0 km/h (0 Bft)
06.07.2014 10:40 25,4 C 27,0 C 23,3 C 35,5 C 35,5 C 10,1 C 63 % 71 % 100 % 1011,7 hPa 0,0 l/m 0,8 km/h (0 Bft) SW 225 5 min 0,0 UV-I 17,8 C 35,5 C 2,6 km/h (1 Bft)
06.07.2014 10:45 25,5 C 27,0 C 23,3 C 35,2 C 35,2 C 9,7 C 63 % 71 % 100 % 1011,7 hPa 0,0 l/m 1,0 km/h (0 Bft) O 90 5 min 0,0 UV-I 17,9 C 35,2 C 0,0 km/h (0 Bft)
06.07.2014 10:50 25,6 C 27,0 C 23,2 C 35,0 C 35,0 C 9,4 C 62 % 71 % 100 % 1011,7 hPa 0,0 l/m 1,0 km/h (0 Bft) S 180 5 min 0,0 UV-I 17,8 C 35,0 C 4,8 km/h (1 Bft)
06.07.2014 10:55 25,9 C 27,0 C 23,5 C 35,0 C 35,0 C 9,1 C 61 % 71 % 100 % 1011,7 hPa 0,0 l/m 0,8 km/h (0 Bft) S 180 5 min 0,0 UV-I 17,8 C 35,0 C 1,6 km/h (1 Bft)
06.07.2014 11:00 25,9 C 27,0 C 23,4 C 34,2 C 34,2 C 8,3 C 61 % 71 % 100 % 1011,8 hPa 0,0 l/m 1,6 km/h (1 Bft) SW 225 5 min 0,0 UV-I 17,8 C 34,2 C 0,0 km/h (0 Bft)
06.07.2014 11:05 25,7 C 26,2 C 23,5 C 34,1 C 34,1 C 8,4 C 61 % 70 % 100 % 1011,8 hPa 0,0 l/m 1,8 km/h (1 Bft) W 270 5 min 0,1 UV-I 17,6 C 34,1 C 2,6 km/h (1 Bft)
06.07.2014 11:10 25,9 C 26,2 C 23,4 C 33,4 C 33,4 C 7,5 C 61 % 70 % 100 % 1011,8 hPa 0,0 l/m 1,4 km/h (1 Bft) W 270 5 min 0,1 UV-I 17,8 C 33,4 C 0,0 km/h (0 Bft)
06.07.2014 11:15 26,0 C 26,2 C 23,3 C 32,5 C 32,5 C 6,5 C 61 % 71 % 100 % 1011,8 hPa 0,0 l/m 1,3 km/h (1 Bft) O-NO 67 5 min 0,0 UV-I 17,9 C 32,5 C 0,0 km/h (0 Bft)
06.07.2014 11:20 26,2 C 26,3 C 23,7 C 33,2 C 33,2 C 7,0 C 60 % 71 % 100 % 1011,0 hPa 0,0 l/m 0,5 km/h (0 Bft) SO 135 5 min 0,1 UV-I 17,8 C 33,2 C 2,1 km/h (1 Bft)
06.07.2014 11:25 26,3 C 26,3 C 23,6 C 33,4 C 33,4 C 7,1 C 59 % 70 % 100 % 1011,0 hPa 0,0 l/m 0,8 km/h (0 Bft) S 180 5 min 0,1 UV-I 17,6 C 33,4 C 0,0 km/h (0 Bft)
06.07.2014 11:30 26,3 C 26,3 C 23,7 C 33,3 C 33,3 C 7,0 C 59 % 70 % 100 % 1011,0 hPa 0,0 l/m 0,6 km/h (0 Bft) O-NO 67 5 min 0,1 UV-I 17,6 C 33,3 C 2,3 km/h (1 Bft)
06.07.2014 11:35 26,3 C 26,3 C 23,9 C 33,6 C 33,6 C 7,3 C 59 % 69 % 100 % 1011,0 hPa 0,0 l/m 0,8 km/h (0 Bft) W-NW 292 5 min 0,0 UV-I 17,6 C 33,6 C 5,0 km/h (1 Bft)
06.07.2014 11:40 26,3 C 26,3 C 24,1 C 34,4 C 34,4 C 8,1 C 59 % 69 % 100 % 1011,4 hPa 0,0 l/m 1,4 km/h (1 Bft) SW 225 5 min 0,0 UV-I 17,6 C 34,4 C 0,0 km/h (0 Bft)
06.07.2014 11:45 26,5 C 26,3 C 24,4 C 34,4 C 34,4 C 7,9 C 58 % 68 % 100 % 1011,4 hPa 0,0 l/m 1,9 km/h (1 Bft) S 180 5 min 0,0 UV-I 17,5 C 34,4 C 3,2 km/h (1 Bft)
06.07.2014 11:50 26,4 C 26,3 C 24,5 C 34,0 C 34,0 C 7,6 C 58 % 67 % 100 % 1011,4 hPa 0,0 l/m 1,8 km/h (1 Bft) SW 225 5 min 0,0 UV-I 17,5 C 34,0 C 10,1 km/h (2 Bft)
06.07.2014 11:55 26,5 C 26,3 C 24,5 C 34,1 C 34,1 C 7,6 C 57 % 67 % 100 % 1011,4 hPa 0,0 l/m 2,1 km/h (1 Bft) W 270 5 min 0,0 UV-I 17,3 C 34,1 C 1,8 km/h (1 Bft)
06.07.2014 12:00 26,6 C 26,3 C 24,6 C 33,2 C 33,2 C 6,6 C 56 % 67 % 100 % 1011,3 hPa 0,0 l/m 2,1 km/h (1 Bft) S 180 5 min 0,0 UV-I 17,1 C 33,2 C 3,1 km/h (1 Bft)
06.07.2014 12:05 26,7 C 26,3 C 24,8 C 33,2 C 33,2 C 6,5 C 56 % 67 % 100 % 1011,3 hPa 0,0 l/m 2,3 km/h (1 Bft) SW 225 5 min 0,0 UV-I 17,2 C 33,2 C 3,1 km/h (1 Bft)
06.07.2014 12:10 26,9 C 26,3 C 24,8 C 33,7 C 33,7 C 6,8 C 56 % 66 % 100 % 1011,3 hPa 0,0 l/m 2,1 km/h (1 Bft) S 180 5 min 0,0 UV-I 17,4 C 33,7 C 0,0 km/h (0 Bft)
06.07.2014 12:15 27,3 C 26,3 C 25,1 C 34,0 C 34,0 C 6,7 C 55 % 65 % 100 % 1011,3 hPa 0,0 l/m 1,9 km/h (1 Bft) O 90 5 min 0,0 UV-I 17,4 C 34,0 C 0,0 km/h (0 Bft)
06.07.2014 12:20 27,5 C 26,3 C 25,3 C 34,4 C 34,4 C 6,9 C 55 % 64 % 100 % 1011,2 hPa 0,0 l/m 1,0 km/h (0 Bft) S 180 5 min 0,0 UV-I 17,6 C 34,4 C 0,0 km/h (0 Bft)
06.07.2014 12:25 28,0 C 26,3 C 25,3 C 34,6 C 34,6 C 6,6 C 54 % 64 % 100 % 1011,2 hPa 0,0 l/m 1,3 km/h (1 Bft) NO 45 5 min 0,1 UV-I 17,8 C 34,6 C 0,0 km/h (0 Bft)
06.07.2014 12:30 28,5 C 26,3 C 25,5 C 34,8 C 34,8 C 6,3 C 53 % 64 % 100 % 1011,2 hPa 0,0 l/m 1,3 km/h (1 Bft) W-SW 247 5 min 0,1 UV-I 18,0 C 34,8 C 0,0 km/h (0 Bft)
06.07.2014 12:35 28,8 C 26,3 C 25,5 C 35,0 C 35,0 C 6,2 C 53 % 64 % 100 % 1011,2 hPa 0,0 l/m 1,4 km/h (1 Bft) W 270 5 min 0,1 UV-I 18,2 C 35,0 C 2,3 km/h (1 Bft)
06.07.2014 12:40 29,5 C 26,3 C 25,6 C 35,4 C 35,4 C 5,9 C 51 % 63 % 100 % 1010,6 hPa 0,0 l/m 0,6 km/h (0 Bft) O-SO 112 5 min 0,1 UV-I 18,3 C 35,4 C 2,3 km/h (1 Bft)
06.07.2014 12:45 29,9 C 26,3 C 25,7 C 35,6 C 35,6 C 5,7 C 49 % 62 % 100 % 1010,6 hPa 0,0 l/m 0,8 km/h (0 Bft) SO 135 5 min 0,1 UV-I 18,0 C 35,6 C 3,1 km/h (1 Bft)
06.07.2014 12:50 30,2 C 26,3 C 25,8 C 35,7 C 35,7 C 5,5 C 48 % 61 % 100 % 1010,6 hPa 0,0 l/m 0,8 km/h (0 Bft) S-SW 202 5 min 0,1 UV-I 17,9 C 35,7 C 1,6 km/h (1 Bft)
06.07.2014 12:55 30,2 C 26,3 C 25,9 C 35,8 C 35,8 C 5,6 C 48 % 61 % 100 % 1010,6 hPa 0,0 l/m 0,8 km/h (0 Bft) W 270 5 min 0,1 UV-I 17,9 C 35,8 C 2,1 km/h (1 Bft)
06.07.2014 13:00 30,4 C 26,3 C 26,1 C 36,0 C 36,0 C 5,6 C 46 % 60 % 100 % 1011,2 hPa 0,0 l/m 1,8 km/h (1 Bft) S 180 5 min 0,1 UV-I 17,5 C 36,0 C 8,2 km/h (2 Bft)
06.07.2014 13:05 30,4 C 26,3 C 26,3 C 35,2 C 35,2 C 4,8 C 46 % 60 % 100 % 1011,2 hPa 0,0 l/m 3,2 km/h (1 Bft) W-SW 247 5 min 0,1 UV-I 17,5 C 35,2 C 1,9 km/h (1 Bft)
06.07.2014 13:10 30,5 C 26,3 C 26,4 C 34,6 C 34,6 C 4,1 C 46 % 59 % 100 % 1011,2 hPa 0,0 l/m 3,4 km/h (1 Bft) S 180 5 min 0,1 UV-I 17,5 C 34,6 C 3,4 km/h (1 Bft)
06.07.2014 13:15 30,7 C 26,3 C 26,4 C 34,7 C 34,7 C 4,0 C 45 % 58 % 100 % 1011,2 hPa 0,0 l/m 2,6 km/h (1 Bft) SO 135 5 min 0,1 UV-I 17,4 C 34,7 C 0,0 km/h (0 Bft)
06.07.2014 13:20 30,9 C 26,3 C 26,6 C 35,0 C 35,0 C 4,1 C 44 % 58 % 100 % 1010,9 hPa 0,0 l/m 2,7 km/h (1 Bft) W-SW 247 5 min 0,1 UV-I 17,2 C 35,0 C 12,4 km/h (3 Bft)
06.07.2014 13:25 30,8 C 26,3 C 26,9 C 35,0 C 35,0 C 4,2 C 44 % 58 % 100 % 1010,9 hPa 0,0 l/m 3,2 km/h (1 Bft) SW 225 5 min 0,1 UV-I 17,1 C 35,0 C 6,6 km/h (2 Bft)
06.07.2014 13:30 30,9 C 26,3 C 26,9 C 35,0 C 35,0 C 4,1 C 45 % 58 % 100 % 1010,9 hPa 0,0 l/m 2,3 km/h (1 Bft) S 180 5 min 0,1 UV-I 17,6 C 35,0 C 1,8 km/h (1 Bft)
06.07.2014 13:35 31,1 C 26,3 C 26,9 C 35,2 C 35,2 C 4,1 C 45 % 58 % 100 % 1010,9 hPa 0,0 l/m 1,8 km/h (1 Bft) N-NW 337 5 min 0,2 UV-I 17,7 C 35,2 C 0,0 km/h (0 Bft)
06.07.2014 13:40 31,1 C 26,3 C 27,1 C 35,7 C 35,7 C 4,6 C 43 % 56 % 100 % 1010,8 hPa 0,0 l/m 1,4 km/h (1 Bft) W-SW 247 5 min 0,1 UV-I 17,0 C 35,7 C 6,4 km/h (2 Bft)
06.07.2014 13:45 31,0 C 26,3 C 27,1 C 35,6 C 35,6 C 4,6 C 43 % 57 % 100 % 1010,8 hPa 0,0 l/m 2,1 km/h (1 Bft) SO 135 5 min 0,1 UV-I 16,9 C 35,6 C 2,6 km/h (1 Bft)
06.07.2014 13:50 30,8 C 26,3 C 27,3 C 35,0 C 35,0 C 4,2 C 43 % 57 % 100 % 1010,8 hPa 0,0 l/m 2,4 km/h (1 Bft) S-SW 202 5 min 0,1 UV-I 16,7 C 35,0 C 5,3 km/h (1 Bft)
06.07.2014 13:55 30,8 C 26,3 C 27,3 C 34,9 C 34,9 C 4,1 C 43 % 55 % 100 % 1010,8 hPa 0,0 l/m 2,1 km/h (1 Bft) SW 225 5 min 0,1 UV-I 16,7 C 34,9 C 3,1 km/h (1 Bft)
06.07.2014 14:00 30,8 C 26,3 C 27,6 C 34,6 C 34,6 C 3,8 C 43 % 57 % 100 % 1010,1 hPa 0,0 l/m 1,8 km/h (1 Bft) O-NO 67 5 min 0,1 UV-I 16,7 C 34,6 C 2,9 km/h (1 Bft)
06.07.2014 14:05 30,7 C 26,3 C 27,8 C 34,9 C 34,9 C 4,2 C 44 % 54 % 100 % 1010,1 hPa 0,0 l/m 1,1 km/h (1 Bft) N-NO 22 5 min 0,1 UV-I 17,0 C 34,9 C 2,7 km/h (1 Bft)
06.07.2014 14:10 30,8 C 26,3 C 28,1 C 35,4 C 35,4 C 4,6 C 43 % 54 % 100 % 1010,1 hPa 0,0 l/m 1,8 km/h (1 Bft) NW 315 5 min 0,1 UV-I 16,7 C 35,4 C 4,0 km/h (1 Bft)
06.07.2014 14:15 31,0 C 26,3 C 28,1 C 35,5 C 35,5 C 4,5 C 43 % 54 % 100 % 1010,1 hPa 0,0 l/m 1,9 km/h (1 Bft) W-SW 247 5 min 0,1 UV-I 16,9 C 35,5 C 4,7 km/h (1 Bft)
06.07.2014 14:20 31,5 C 26,3 C 28,1 C 35,3 C 35,3 C 3,8 C 42 % 53 % 100 % 1010,3 hPa 0,0 l/m 2,9 km/h (1 Bft) SW 225 5 min 0,1 UV-I 17,0 C 35,3 C 3,7 km/h (1 Bft)
06.07.2014 14:25 31,6 C 26,6 C 27,9 C 35,3 C 35,3 C 3,7 C 42 % 54 % 97 % 1010,3 hPa 0,0 l/m 2,6 km/h (1 Bft) O-SO 112 5 min 0,1 UV-I 17,1 C 35,3 C 1,9 km/h (1 Bft)
06.07.2014 14:30 31,7 C 26,6 C 28,0 C 35,7 C 35,7 C 4,0 C 41 % 54 % 100 % 1010,3 hPa 0,0 l/m 1,6 km/h (1 Bft) S-SO 157 5 min 0,1 UV-I 16,8 C 35,7 C 3,7 km/h (1 Bft)
06.07.2014 14:35 31,7 C 26,6 C 28,1 C 35,8 C 35,8 C 4,1 C 42 % 53 % 100 % 1010,3 hPa 0,0 l/m 1,3 km/h (1 Bft) SW 225 5 min 0,1 UV-I 17,2 C 35,8 C 2,1 km/h (1 Bft)
06.07.2014 14:40 31,9 C 26,6 C 28,3 C 36,3 C 36,3 C 4,4 C 41 % 53 % 100 % 1010,2 hPa 0,0 l/m 1,1 km/h (1 Bft) SO 135 5 min 0,1 UV-I 17,0 C 36,3 C 0,0 km/h (0 Bft)
06.07.2014 14:45 32,0 C 26,6 C 28,3 C 36,8 C 36,8 C 4,8 C 41 % 53 % 100 % 1010,2 hPa 0,0 l/m 0,8 km/h (0 Bft) W 270 5 min 0,1 UV-I 17,1 C 36,8 C 1,6 km/h (1 Bft)
06.07.2014 14:50 32,5 C 26,6 C 28,5 C 37,1 C 37,1 C 4,6 C 41 % 53 % 100 % 1010,2 hPa 0,0 l/m 0,8 km/h (0 Bft) SW 225 5 min 0,1 UV-I 17,5 C 37,1 C 3,4 km/h (1 Bft)
06.07.2014 14:55 32,6 C 26,6 C 28,3 C 37,1 C 37,1 C 4,5 C 40 % 50 % 100 % 1010,2 hPa 0,0 l/m 1,0 km/h (0 Bft) N-NO 22 5 min 0,1 UV-I 17,2 C 37,1 C 0,0 km/h (0 Bft)
06.07.2014 15:00 32,4 C 26,7 C 28,4 C 37,2 C 37,2 C 4,8 C 41 % 52 % 100 % 1010,2 hPa 0,0 l/m 1,3 km/h (1 Bft) S 180 5 min 0,1 UV-I 17,4 C 37,2 C 1,8 km/h (1 Bft)
06.07.2014 15:05 32,6 C 26,7 C 28,4 C 37,2 C 37,2 C 4,6 C 40 % 52 % 100 % 1010,2 hPa 0,0 l/m 1,4 km/h (1 Bft) W 270 5 min 0,1 UV-I 17,2 C 37,2 C 3,2 km/h (1 Bft)
06.07.2014 15:10 32,8 C 26,7 C 28,6 C 37,1 C 37,1 C 4,3 C 39 % 51 % 100 % 1010,2 hPa 0,0 l/m 2,1 km/h (1 Bft) SW 225 5 min 0,1 UV-I 17,0 C 37,1 C 4,0 km/h (1 Bft)
06.07.2014 15:15 32,9 C 26,7 C 28,7 C 37,0 C 37,0 C 4,1 C 39 % 52 % 100 % 1010,2 hPa 0,0 l/m 2,1 km/h (1 Bft) NW 315 5 min 0,1 UV-I 17,1 C 37,0 C 4,5 km/h (1 Bft)
06.07.2014 15:20 33,0 C 26,7 C 28,5 C 36,1 C 36,1 C 3,1 C 38 % 49 % 82 % 1009,5 hPa 0,0 l/m 3,2 km/h (1 Bft) N-NW 337 0 min 0,1 UV-I 16,8 C 36,1 C 2,1 km/h (1 Bft)
06.07.2014 15:25 32,9 C 26,7 C 28,4 C 35,9 C 35,9 C 3,0 C 39 % 51 % 79 % 1009,5 hPa 0,0 l/m 3,5 km/h (1 Bft) S 180 0 min 0,1 UV-I 17,1 C 35,9 C 4,7 km/h (1 Bft)
06.07.2014 15:30 33,0 C 26,8 C 28,7 C 36,2 C 36,2 C 3,2 C 40 % 51 % 84 % 1009,5 hPa 0,0 l/m 2,3 km/h (1 Bft) SW 225 0 min 0,1 UV-I 17,6 C 36,2 C 2,3 km/h (1 Bft)
06.07.2014 15:35 33,1 C 26,8 C 28,7 C 36,3 C 36,3 C 3,2 C 39 % 51 % 84 % 1009,5 hPa 0,0 l/m 2,1 km/h (1 Bft) S 180 0 min 0,1 UV-I 17,3 C 36,3 C 2,9 km/h (1 Bft)
06.07.2014 15:40 32,6 C 26,8 C 28,8 C 36,8 C 36,8 C 4,2 C 39 % 50 % 100 % 1010,0 hPa 0,0 l/m 1,4 km/h (1 Bft) O-NO 67 5 min 0,1 UV-I 16,8 C 36,8 C 3,4 km/h (1 Bft)
06.07.2014 15:45 32,4 C 26,8 C 28,8 C 36,9 C 36,9 C 4,5 C 39 % 51 % 100 % 1010,0 hPa 0,0 l/m 1,6 km/h (1 Bft) S 180 5 min 0,1 UV-I 16,6 C 36,9 C 3,2 km/h (1 Bft)
06.07.2014 15:50 32,5 C 26,9 C 28,7 C 36,6 C 36,6 C 4,1 C 39 % 51 % 100 % 1010,0 hPa 0,0 l/m 1,9 km/h (1 Bft) SW 225 5 min 0,1 UV-I 16,7 C 36,6 C 5,0 km/h (1 Bft)
06.07.2014 15:55 32,9 C 26,9 C 28,8 C 36,6 C 36,6 C 3,7 C 41 % 51 % 97 % 1010,0 hPa 0,0 l/m 1,9 km/h (1 Bft) W-SW 247 5 min 0,1 UV-I 17,9 C 36,6 C 0,0 km/h (0 Bft)
06.07.2014 16:00 33,2 C 26,9 C 28,8 C 36,8 C 36,8 C 3,6 C 39 % 51 % 95 % 1009,6 hPa 0,0 l/m 1,6 km/h (1 Bft) W-SW 247 5 min 0,1 UV-I 17,3 C 36,8 C 0,0 km/h (0 Bft)
06.07.2014 16:05 33,4 C 26,9 C 28,9 C 36,8 C 36,8 C 3,4 C 39 % 51 % 89 % 1009,6 hPa 0,0 l/m 1,4 km/h (1 Bft) S-SO 157 5 min 0,1 UV-I 17,5 C 36,8 C 4,3 km/h (1 Bft)
06.07.2014 16:10 33,3 C 26,9 C 29,0 C 37,1 C 37,1 C 3,8 C 39 % 51 % 100 % 1009,6 hPa 0,0 l/m 1,1 km/h (1 Bft) S 180 5 min 0,1 UV-I 17,4 C 37,1 C 1,6 km/h (1 Bft)
06.07.2014 16:15 33,2 C 26,9 C 29,2 C 37,2 C 37,2 C 4,0 C 38 % 51 % 100 % 1009,6 hPa 0,0 l/m 1,6 km/h (1 Bft) W 270 5 min 0,1 UV-I 16,9 C 37,2 C 7,7 km/h (2 Bft)
06.07.2014 16:20 32,9 C 26,9 C 29,1 C 36,3 C 36,3 C 3,4 C 39 % 50 % 89 % 1009,8 hPa 0,0 l/m 1,8 km/h (1 Bft) SW 225 5 min 0,1 UV-I 17,1 C 36,3 C 0,0 km/h (0 Bft)
06.07.2014 16:25 32,7 C 26,9 C 28,9 C 36,3 C 36,3 C 3,6 C 40 % 51 % 95 % 1009,8 hPa 0,0 l/m 1,1 km/h (1 Bft) O-SO 112 5 min 0,1 UV-I 17,3 C 36,3 C 4,7 km/h (1 Bft)
06.07.2014 16:30 32,4 C 26,9 C 28,8 C 36,1 C 36,1 C 3,7 C 40 % 51 % 97 % 1009,8 hPa 0,0 l/m 1,9 km/h (1 Bft) S 180 5 min 0,1 UV-I 17,0 C 36,1 C 4,7 km/h (1 Bft)
06.07.2014 16:35 32,1 C 27,0 C 28,7 C 35,7 C 35,7 C 3,6 C 40 % 51 % 95 % 1009,8 hPa 0,0 l/m 1,9 km/h (1 Bft) O-NO 67 5 min 0,1 UV-I 16,8 C 35,7 C 0,0 km/h (0 Bft)
06.07.2014 16:40 31,7 C 27,0 C 28,8 C 35,0 C 35,0 C 3,3 C 40 % 51 % 87 % 1009,5 hPa 0,0 l/m 1,8 km/h (1 Bft) O-NO 67 5 min 0,1 UV-I 16,4 C 35,0 C 3,9 km/h (1 Bft)
06.07.2014 16:45 31,4 C 27,0 C 28,8 C 35,7 C 35,7 C 4,3 C 41 % 50 % 100 % 1009,5 hPa 0,0 l/m 1,6 km/h (1 Bft) S-SO 157 5 min 0,1 UV-I 16,5 C 35,7 C 5,0 km/h (1 Bft)
06.07.2014 16:50 31,7 C 27,0 C 29,1 C 36,6 C 36,6 C 4,9 C 41 % 51 % 100 % 1009,5 hPa 0,0 l/m 2,1 km/h (1 Bft) W-SW 247 5 min 0,1 UV-I 16,8 C 36,6 C 3,7 km/h (1 Bft)
06.07.2014 16:55 31,8 C 27,0 C 28,7 C 36,6 C 36,6 C 4,8 C 40 % 51 % 100 % 1009,5 hPa 0,0 l/m 1,6 km/h (1 Bft) SW 225 5 min 0,1 UV-I 16,5 C 36,6 C 0,0 km/h (0 Bft)
06.07.2014 17:00 31,7 C 27,0 C 28,7 C 35,8 C 35,8 C 4,1 C 40 % 51 % 100 % 1009,6 hPa 0,0 l/m 0,8 km/h (0 Bft) NO 45 5 min 0,1 UV-I 16,4 C 35,8 C 3,7 km/h (1 Bft)
06.07.2014 17:05 31,4 C 27,1 C 28,7 C 35,9 C 35,9 C 4,5 C 40 % 52 % 100 % 1009,6 hPa 0,0 l/m 1,4 km/h (1 Bft) O-NO 67 5 min 0,1 UV-I 16,1 C 35,9 C 3,7 km/h (1 Bft)
06.07.2014 17:10 31,1 C 27,1 C 28,6 C 35,3 C 35,3 C 4,2 C 42 % 52 % 100 % 1009,6 hPa 0,0 l/m 2,3 km/h (1 Bft) NO 45 5 min 0,1 UV-I 16,6 C 35,3 C 2,4 km/h (1 Bft)
06.07.2014 17:15 30,9 C 27,1 C 28,6 C 35,5 C 35,5 C 4,6 C 42 % 52 % 100 % 1009,6 hPa 0,0 l/m 1,8 km/h (1 Bft) O-NO 67 5 min 0,1 UV-I 16,5 C 35,5 C 0,0 km/h (0 Bft)
06.07.2014 17:20 30,9 C 27,1 C 28,4 C 36,4 C 36,4 C 5,5 C 43 % 52 % 100 % 1009,4 hPa 0,0 l/m 0,3 km/h (0 Bft) W-SW 247 5 min 0,1 UV-I 16,8 C 36,4 C 0,0 km/h (0 Bft)
06.07.2014 17:25 30,9 C 27,1 C 28,4 C 36,3 C 36,3 C 5,4 C 42 % 52 % 100 % 1009,4 hPa 0,0 l/m 0,6 km/h (0 Bft) W 270 5 min 0,1 UV-I 16,5 C 36,3 C 1,8 km/h (1 Bft)
06.07.2014 17:30 30,9 C 27,1 C 28,2 C 36,2 C 36,2 C 5,3 C 42 % 52 % 100 % 1009,4 hPa 0,0 l/m 1,0 km/h (0 Bft) W-SW 247 5 min 0,1 UV-I 16,5 C 36,2 C 2,7 km/h (1 Bft)
06.07.2014 17:35 30,8 C 27,1 C 28,3 C 35,5 C 35,5 C 4,7 C 41 % 52 % 100 % 1009,4 hPa 0,0 l/m 1,3 km/h (1 Bft) W-SW 247 5 min 0,1 UV-I 16,0 C 35,5 C 1,9 km/h (1 Bft)
06.07.2014 17:40 30,7 C 27,1 C 28,7 C 35,9 C 35,9 C 5,2 C 42 % 50 % 100 % 1009,3 hPa 0,0 l/m 1,3 km/h (1 Bft) SW 225 5 min 0,1 UV-I 16,3 C 35,9 C 0,0 km/h (0 Bft)
06.07.2014 17:45 30,7 C 27,1 C 28,6 C 36,5 C 36,5 C 5,8 C 42 % 51 % 100 % 1009,3 hPa 0,0 l/m 1,6 km/h (1 Bft) S-SO 157 5 min 0,1 UV-I 16,3 C 36,5 C 2,9 km/h (1 Bft)
06.07.2014 17:50 30,8 C 27,1 C 28,7 C 37,1 C 37,1 C 6,3 C 43 % 52 % 100 % 1009,3 hPa 0,0 l/m 1,3 km/h (1 Bft) N 360 5 min 0,1 UV-I 16,7 C 37,1 C 0,0 km/h (0 Bft)
06.07.2014 17:55 30,9 C 27,1 C 28,6 C 37,2 C 37,2 C 6,3 C 42 % 51 % 100 % 1009,3 hPa 0,0 l/m 1,3 km/h (1 Bft) W-SW 247 5 min 0,1 UV-I 16,5 C 37,2 C 0,0 km/h (0 Bft)
06.07.2014 18:00 30,8 C 27,1 C 28,6 C 36,5 C 36,5 C 5,7 C 42 % 52 % 100 % 1008,8 hPa 0,0 l/m 1,0 km/h (0 Bft) W-NW 292 5 min 0,1 UV-I 16,4 C 36,5 C 3,2 km/h (1 Bft)
06.07.2014 18:05 30,8 C 27,1 C 28,7 C 36,8 C 36,8 C 6,0 C 43 % 51 % 100 % 1008,8 hPa 0,0 l/m 0,8 km/h (0 Bft) S-SW 202 5 min 0,1 UV-I 16,7 C 36,8 C 0,0 km/h (0 Bft)
06.07.2014 18:10 30,9 C 27,1 C 28,5 C 36,9 C 36,9 C 6,0 C 43 % 51 % 100 % 1008,8 hPa 0,0 l/m 0,5 km/h (0 Bft) S 180 5 min 0,1 UV-I 16,8 C 36,9 C 0,0 km/h (0 Bft)
06.07.2014 18:15 30,7 C 27,1 C 28,3 C 36,7 C 36,7 C 6,0 C 42 % 51 % 100 % 1008,8 hPa 0,0 l/m 0,2 km/h (0 Bft) O-SO 112 5 min 0,1 UV-I 16,3 C 36,7 C 0,0 km/h (0 Bft)
06.07.2014 18:20 30,7 C 27,1 C 28,3 C 35,9 C 35,9 C 5,2 C 42 % 52 % 100 % 1009,0 hPa 0,0 l/m 0,3 km/h (0 Bft) NO 45 5 min 0,1 UV-I 16,3 C 35,9 C 0,0 km/h (0 Bft)
06.07.2014 18:25 30,5 C 27,1 C 28,4 C 36,2 C 36,2 C 5,7 C 42 % 51 % 100 % 1009,0 hPa 0,0 l/m 0,3 km/h (0 Bft) NO 45 5 min 0,1 UV-I 16,1 C 36,2 C 0,0 km/h (0 Bft)
06.07.2014 18:30 30,7 C 27,1 C 28,6 C 37,5 C 37,5 C 6,8 C 43 % 52 % 100 % 1009,0 hPa 0,0 l/m 0,2 km/h (0 Bft) O-SO 112 5 min 0,1 UV-I 16,7 C 37,5 C 0,0 km/h (0 Bft)
06.07.2014 18:35 30,7 C 27,1 C 28,7 C 37,8 C 37,8 C 7,1 C 42 % 51 % 100 % 1009,0 hPa 0,0 l/m 0,3 km/h (0 Bft) W 270 5 min 0,1 UV-I 16,3 C 37,8 C 3,7 km/h (1 Bft)
06.07.2014 18:40 30,9 C 27,1 C 28,7 C 37,8 C 37,8 C 6,9 C 43 % 51 % 100 % 1008,9 hPa 0,0 l/m 0,6 km/h (0 Bft) N-NW 337 5 min 0,1 UV-I 16,8 C 37,8 C 0,0 km/h (0 Bft)
06.07.2014 18:45 30,7 C 27,1 C 28,7 C 37,2 C 37,2 C 6,5 C 44 % 53 % 100 % 1008,9 hPa 0,0 l/m 1,9 km/h (1 Bft) O-NO 67 5 min 0,1 UV-I 17,0 C 37,2 C 4,0 km/h (1 Bft)
06.07.2014 18:50 30,4 C 27,1 C 28,7 C 35,5 C 35,5 C 5,1 C 44 % 53 % 100 % 1008,9 hPa 0,0 l/m 4,0 km/h (1 Bft) O-NO 67 5 min 0,1 UV-I 16,7 C 35,5 C 4,0 km/h (1 Bft)
06.07.2014 18:55 30,2 C 27,1 C 28,5 C 35,1 C 35,1 C 4,9 C 44 % 53 % 100 % 1008,9 hPa 0,0 l/m 4,5 km/h (1 Bft) O-NO 67 5 min 0,1 UV-I 16,6 C 35,1 C 5,1 km/h (1 Bft)
06.07.2014 19:00 30,0 C 27,1 C 28,5 C 34,1 C 34,1 C 4,1 C 44 % 53 % 100 % 1008,8 hPa 0,0 l/m 5,1 km/h (1 Bft) O 90 5 min 0,0 UV-I 16,4 C 34,1 C 3,2 km/h (1 Bft)
06.07.2014 19:05 30,0 C 27,1 C 28,5 C 33,8 C 33,8 C 3,8 C 45 % 53 % 100 % 1008,8 hPa 0,0 l/m 5,1 km/h (1 Bft) O-NO 67 5 min 0,1 UV-I 16,7 C 33,8 C 6,4 km/h (2 Bft)
06.07.2014 19:10 29,7 C 27,1 C 28,4 C 33,1 C 33,1 C 3,4 C 45 % 53 % 89 % 1008,8 hPa 0,0 l/m 5,6 km/h (1 Bft) O-NO 67 5 min 0,0 UV-I 16,5 C 33,1 C 6,8 km/h (2 Bft)
06.07.2014 19:15 29,5 C 27,1 C 28,0 C 32,6 C 32,6 C 3,1 C 46 % 54 % 82 % 1008,8 hPa 0,0 l/m 6,0 km/h (2 Bft) O-SO 112 5 min 0,1 UV-I 16,6 C 32,6 C 6,1 km/h (2 Bft)
06.07.2014 19:20 29,3 C 27,1 C 27,8 C 31,0 C 31,0 C 1,7 C 48 % 55 % 45 % 1008,5 hPa 0,0 l/m 5,0 km/h (1 Bft) O-NO 67 0 min 0,0 UV-I 17,1 C 31,0 C 4,7 km/h (1 Bft)
06.07.2014 19:25 29,1 C 27,1 C 27,6 C 31,0 C 31,0 C 1,9 C 49 % 56 % 50 % 1008,5 hPa 0,0 l/m 4,5 km/h (1 Bft) O-NO 67 0 min 0,0 UV-I 17,3 C 31,0 C 4,3 km/h (1 Bft)
06.07.2014 19:30 29,1 C 27,1 C 27,6 C 31,2 C 31,2 C 2,1 C 50 % 57 % 55 % 1008,5 hPa 0,0 l/m 4,3 km/h (1 Bft) O-SO 112 0 min 0,0 UV-I 17,6 C 31,2 C 7,9 km/h (2 Bft)
06.07.2014 19:35 28,9 C 27,1 C 27,6 C 31,3 C 31,3 C 2,4 C 51 % 58 % 63 % 1008,5 hPa 0,0 l/m 4,5 km/h (1 Bft) O-NO 67 0 min 0,0 UV-I 17,7 C 31,3 C 10,5 km/h (2 Bft)
06.07.2014 19:40 28,8 C 27,1 C 27,5 C 31,1 C 31,1 C 2,3 C 51 % 58 % 61 % 1008,6 hPa 0,0 l/m 5,3 km/h (1 Bft) O-NO 67 5 min 0,0 UV-I 17,6 C 31,1 C 4,0 km/h (1 Bft)
06.07.2014 19:45 28,7 C 27,1 C 27,3 C 31,0 C 31,0 C 2,3 C 52 % 59 % 61 % 1008,6 hPa 0,0 l/m 4,8 km/h (1 Bft) O-NO 67 5 min 0,0 UV-I 17,8 C 31,0 C 5,0 km/h (1 Bft)
06.07.2014 19:50 28,5 C 27,1 C 27,0 C 30,2 C 30,2 C 1,7 C 52 % 59 % 45 % 1008,6 hPa 0,0 l/m 4,5 km/h (1 Bft) NO 45 0 min 0,0 UV-I 17,7 C 30,2 C 5,3 km/h (1 Bft)
06.07.2014 19:55 28,4 C 27,1 C 26,9 C 29,9 C 29,9 C 1,5 C 52 % 60 % 39 % 1008,6 hPa 0,0 l/m 4,7 km/h (1 Bft) O 90 0 min 0,0 UV-I 17,6 C 29,9 C 4,3 km/h (1 Bft)
06.07.2014 20:00 28,2 C 27,1 C 26,7 C 28,9 C 28,9 C 0,7 C 53 % 60 % 18 % 1008,8 hPa 0,0 l/m 4,7 km/h (1 Bft) O-NO 67 0 min 0,0 UV-I 17,7 C 28,9 C 7,6 km/h (2 Bft)
06.07.2014 20:05 28,1 C 27,1 C 26,6 C 28,4 C 28,4 C 0,3 C 54 % 61 % 8 % 1008,8 hPa 0,0 l/m 4,7 km/h (1 Bft) O 90 0 min 0,0 UV-I 17,9 C 28,4 C 4,0 km/h (1 Bft)
06.07.2014 20:10 27,8 C 27,1 C 26,3 C 27,9 C 27,9 C 0,1 C 55 % 62 % 3 % 1008,8 hPa 0,0 l/m 4,2 km/h (1 Bft) O-NO 67 0 min 0,0 UV-I 17,9 C 27,9 C 4,3 km/h (1 Bft)
06.07.2014 20:15 27,7 C 27,1 C 26,2 C 27,7 C 27,7 C 0,0 C 55 % 63 % 0 % 1008,8 hPa 0,0 l/m 4,2 km/h (1 Bft) O-NO 67 0 min 0,0 UV-I 17,8 C 27,7 C 4,8 km/h (1 Bft)
06.07.2014 20:20 27,5 C 27,1 C 26,1 C 27,4 C 27,2 C 0,0 C 55 % 63 % 0 % 1008,6 hPa 0,0 l/m 3,9 km/h (1 Bft) O-NO 67 0 min 0,0 UV-I 17,6 C 27,2 C 5,0 km/h (1 Bft)
06.07.2014 20:25 27,5 C 27,1 C 26,0 C 27,4 C 27,1 C 0,0 C 55 % 63 % 0 % 1008,6 hPa 0,0 l/m 3,9 km/h (1 Bft) O-NO 67 0 min 0,0 UV-I 17,6 C 27,1 C 4,3 km/h (1 Bft)
06.07.2014 20:30 27,3 C 27,1 C 25,9 C 27,1 C 26,8 C 0,0 C 56 % 64 % 0 % 1008,6 hPa 0,0 l/m 4,5 km/h (1 Bft) O 90 0 min 0,0 UV-I 17,7 C 26,8 C 3,9 km/h (1 Bft)
06.07.2014 20:35 27,1 C 27,1 C 25,7 C 27,0 C 26,7 C 0,0 C 56 % 64 % 0 % 1008,6 hPa 0,0 l/m 4,5 km/h (1 Bft) O-SO 112 0 min 0,0 UV-I 17,5 C 26,7 C 5,1 km/h (1 Bft)
06.07.2014 20:40 26,9 C 27,1 C 25,6 C 26,7 C 26,4 C 0,0 C 57 % 64 % 0 % 1008,1 hPa 0,0 l/m 4,0 km/h (1 Bft) O-NO 67 0 min 0,0 UV-I 17,6 C 26,4 C 6,1 km/h (2 Bft)
06.07.2014 20:45 26,8 C 27,1 C 25,5 C 26,6 C 26,2 C 0,0 C 58 % 64 % 0 % 1008,1 hPa 0,0 l/m 4,0 km/h (1 Bft) O-NO 67 0 min 0,0 UV-I 17,8 C 26,2 C 5,1 km/h (1 Bft)
06.07.2014 20:50 26,5 C 27,1 C 25,3 C 26,3 C 26,0 C 0,0 C 59 % 65 % 0 % 1008,1 hPa 0,0 l/m 4,3 km/h (1 Bft) O-NO 67 0 min 0,0 UV-I 17,8 C 26,0 C 7,6 km/h (2 Bft)
06.07.2014 20:55 26,4 C 27,1 C 25,1 C 26,2 C 25,8 C 0,0 C 59 % 65 % 0 % 1008,1 hPa 0,0 l/m 4,8 km/h (1 Bft) O 90 0 min 0,0 UV-I 17,7 C 25,8 C 7,1 km/h (2 Bft)
06.07.2014 21:00 26,3 C 27,1 C 25,1 C 26,1 C 25,7 C 0,0 C 59 % 65 % 0 % 1008,6 hPa 0,0 l/m 6,0 km/h (2 Bft) O 90 0 min 0,0 UV-I 17,6 C 25,7 C 4,3 km/h (1 Bft)
06.07.2014 21:05 26,0 C 27,1 C 24,8 C 25,8 C 25,5 C 0,0 C 59 % 66 % 0 % 1008,6 hPa 0,0 l/m 5,3 km/h (1 Bft) O-NO 67 0 min 0,0 UV-I 17,4 C 25,5 C 5,3 km/h (1 Bft)
06.07.2014 21:10 25,9 C 27,1 C 24,7 C 25,7 C 25,3 C 0,0 C 59 % 66 % 0 % 1008,6 hPa 0,0 l/m 4,2 km/h (1 Bft) O-NO 67 0 min 0,0 UV-I 17,3 C 25,3 C 4,0 km/h (1 Bft)
06.07.2014 21:15 25,9 C 27,1 C 24,7 C 25,7 C 25,3 C 0,0 C 60 % 66 % 0 % 1008,6 hPa 0,0 l/m 4,3 km/h (1 Bft) O-NO 67 0 min 0,0 UV-I 17,5 C 25,3 C 7,1 km/h (2 Bft)
06.07.2014 21:20 25,8 C 27,1 C 24,5 C 25,6 C 25,2 C 0,0 C 59 % 67 % 0 % 1008,6 hPa 0,0 l/m 4,5 km/h (1 Bft) NO 45 0 min 0,0 UV-I 17,2 C 25,2 C 4,3 km/h (1 Bft)
06.07.2014 21:25 25,8 C 27,1 C 24,4 C 25,6 C 25,2 C 0,0 C 60 % 67 % 0 % 1008,6 hPa 0,0 l/m 4,8 km/h (1 Bft) SO 135 0 min 0,0 UV-I 17,4 C 25,2 C 9,8 km/h (2 Bft)
06.07.2014 21:30 25,8 C 27,1 C 24,4 C 25,6 C 25,1 C 0,0 C 60 % 67 % 0 % 1008,6 hPa 0,0 l/m 4,5 km/h (1 Bft) O-NO 67 0 min 0,0 UV-I 17,4 C 25,1 C 6,4 km/h (2 Bft)
06.07.2014 21:35 25,7 C 27,1 C 24,4 C 25,5 C 25,1 C 0,0 C 60 % 67 % 0 % 1008,6 hPa 0,0 l/m 4,2 km/h (1 Bft) O-NO 67 0 min 0,0 UV-I 17,3 C 25,1 C 4,2 km/h (1 Bft)
06.07.2014 21:40 25,5 C 27,1 C 24,3 C 25,3 C 24,8 C 0,0 C 60 % 67 % 0 % 1008,8 hPa 0,0 l/m 2,4 km/h (1 Bft) O-NO 67 0 min 0,0 UV-I 17,2 C 24,8 C 3,5 km/h (1 Bft)
06.07.2014 21:45 25,5 C 27,1 C 24,1 C 25,3 C 24,8 C 0,0 C 60 % 67 % 0 % 1008,8 hPa 0,0 l/m 1,8 km/h (1 Bft) O-SO 112 0 min 0,0 UV-I 17,2 C 24,8 C 1,9 km/h (1 Bft)
06.07.2014 21:50 25,3 C 27,1 C 24,1 C 25,1 C 24,6 C 0,0 C 60 % 67 % 0 % 1008,8 hPa 0,0 l/m 1,6 km/h (1 Bft) O-NO 67 0 min 0,0 UV-I 17,0 C 24,6 C 3,2 km/h (1 Bft)
06.07.2014 21:55 25,3 C 27,1 C 24,0 C 25,0 C 24,5 C 0,0 C 60 % 68 % 0 % 1008,8 hPa 0,0 l/m 1,3 km/h (1 Bft) NW 315 0 min 0,0 UV-I 17,0 C 24,5 C 0,0 km/h (0 Bft)
06.07.2014 22:00 25,0 C 27,1 C 23,8 C 24,8 C 24,3 C 0,0 C 60 % 67 % 0 % 1008,7 hPa 0,0 l/m 0,6 km/h (0 Bft) O-NO 67 0 min 0,0 UV-I 16,7 C 24,3 C 0,0 km/h (0 Bft)
06.07.2014 22:05 25,0 C 27,1 C 23,7 C 24,7 C 24,1 C 0,0 C 61 % 68 % 0 % 1008,7 hPa 0,0 l/m 0,6 km/h (0 Bft) O-NO 67 0 min 0,0 UV-I 16,9 C 24,1 C 1,9 km/h (1 Bft)
06.07.2014 22:10 24,8 C 27,1 C 23,7 C 24,6 C 24,1 C 0,0 C 61 % 67 % 0 % 1008,7 hPa 0,0 l/m 1,3 km/h (1 Bft) O-NO 67 0 min 0,0 UV-I 16,8 C 24,1 C 0,0 km/h (0 Bft)
06.07.2014 22:15 24,9 C 27,1 C 23,5 C 24,6 C 24,0 C 0,0 C 61 % 68 % 0 % 1008,7 hPa 0,0 l/m 1,4 km/h (1 Bft) O-NO 67 0 min 0,0 UV-I 16,8 C 24,0 C 0,0 km/h (0 Bft)
06.07.2014 22:20 24,7 C 27,1 C 23,5 C 24,4 C 23,8 C 0,0 C 61 % 68 % 0 % 1008,7 hPa 0,0 l/m 0,6 km/h (0 Bft) N-NO 22 0 min 0,0 UV-I 16,7 C 23,8 C 0,0 km/h (0 Bft)
06.07.2014 22:25 24,7 C 27,1 C 23,2 C 24,4 C 23,7 C 0,0 C 61 % 68 % 0 % 1008,7 hPa 0,0 l/m 0,5 km/h (0 Bft) O-SO 112 0 min 0,0 UV-I 16,7 C 23,7 C 0,0 km/h (0 Bft)
06.07.2014 22:30 24,5 C 27,1 C 23,2 C 24,2 C 23,5 C 0,0 C 61 % 68 % 0 % 1008,7 hPa 0,0 l/m 0,2 km/h (0 Bft) N-NO 22 0 min 0,0 UV-I 16,5 C 23,5 C 0,0 km/h (0 Bft)
06.07.2014 22:35 24,4 C 27,1 C 23,1 C 24,1 C 23,4 C 0,0 C 61 % 69 % 0 % 1008,7 hPa 0,0 l/m 0,2 km/h (0 Bft) O-NO 67 0 min 0,0 UV-I 16,4 C 23,4 C 0,0 km/h (0 Bft)
06.07.2014 22:40 24,3 C 27,1 C 23,0 C 24,0 C 23,3 C 0,0 C 61 % 69 % 0 % 1008,8 hPa 0,0 l/m 0,3 km/h (0 Bft) O-SO 112 0 min 0,0 UV-I 16,3 C 23,3 C 1,6 km/h (1 Bft)
06.07.2014 22:45 24,2 C 27,1 C 23,0 C 23,9 C 23,3 C 0,0 C 62 % 69 % 0 % 1008,8 hPa 0,0 l/m 0,5 km/h (0 Bft) O-NO 67 0 min 0,0 UV-I 16,4 C 23,3 C 0,0 km/h (0 Bft)
06.07.2014 22:50 24,1 C 27,1 C 22,9 C 23,8 C 23,2 C 0,0 C 62 % 69 % 0 % 1008,8 hPa 0,0 l/m 0,8 km/h (0 Bft) O-NO 67 0 min 0,0 UV-I 16,4 C 23,2 C 0,0 km/h (0 Bft)
06.07.2014 22:55 24,1 C 27,1 C 22,9 C 23,8 C 23,3 C 0,0 C 61 % 69 % 0 % 1008,8 hPa 0,0 l/m 0,8 km/h (0 Bft) O-SO 112 0 min 0,0 UV-I 16,1 C 23,3 C 0,0 km/h (0 Bft)
06.07.2014 23:00 24,1 C 27,1 C 22,9 C 23,8 C 23,2 C 0,0 C 62 % 69 % 0 % 1008,9 hPa 0,0 l/m 0,5 km/h (0 Bft) N-NO 22 0 min 0,0 UV-I 16,4 C 23,2 C 0,0 km/h (0 Bft)
06.07.2014 23:05 24,0 C 27,1 C 22,9 C 23,7 C 23,1 C 0,0 C 62 % 69 % 0 % 1008,9 hPa 0,0 l/m 0,2 km/h (0 Bft) N-NW 337 0 min 0,0 UV-I 16,3 C 23,1 C 0,0 km/h (0 Bft)
06.07.2014 23:10 23,9 C 27,1 C 22,7 C 23,6 C 22,9 C 0,0 C 62 % 69 % 0 % 1008,9 hPa 0,0 l/m 0,0 km/h (0 Bft) S 180 0 min 0,0 UV-I 16,2 C 22,9 C 0,0 km/h (0 Bft)
06.07.2014 23:15 23,9 C 27,1 C 22,7 C 23,5 C 22,8 C 0,0 C 63 % 70 % 0 % 1008,9 hPa 0,0 l/m 0,0 km/h (0 Bft) W-NW 292 0 min 0,0 UV-I 16,4 C 22,8 C 0,0 km/h (0 Bft)
06.07.2014 23:20 23,6 C 27,1 C 22,7 C 23,2 C 22,4 C 0,0 C 64 % 70 % 0 % 1008,9 hPa 0,0 l/m 0,0 km/h (0 Bft) N-NW 337 0 min 0,0 UV-I 16,4 C 22,4 C 0,0 km/h (0 Bft)
06.07.2014 23:25 23,6 C 27,1 C 22,5 C 23,2 C 22,3 C 0,0 C 64 % 70 % 0 % 1008,9 hPa 0,0 l/m 0,0 km/h (0 Bft) N-NW 337 0 min 0,0 UV-I 16,4 C 22,3 C 0,0 km/h (0 Bft)
06.07.2014 23:30 23,5 C 27,1 C 22,5 C 23,0 C 22,1 C 0,0 C 64 % 70 % 0 % 1008,9 hPa 0,0 l/m 0,2 km/h (0 Bft) N-NW 337 0 min 0,0 UV-I 16,3 C 22,1 C 1,8 km/h (1 Bft)
06.07.2014 23:35 23,3 C 27,1 C 22,4 C 22,9 C 22,1 C 0,0 C 65 % 70 % 0 % 1008,9 hPa 0,0 l/m 0,2 km/h (0 Bft) N-NW 337 0 min 0,0 UV-I 16,3 C 22,1 C 0,0 km/h (0 Bft)
06.07.2014 23:40 23,2 C 27,1 C 22,3 C 22,8 C 21,9 C 0,0 C 65 % 71 % 0 % 1009,1 hPa 0,0 l/m 0,2 km/h (0 Bft) NO 45 0 min 0,0 UV-I 16,2 C 21,9 C 0,0 km/h (0 Bft)
06.07.2014 23:45 23,1 C 27,1 C 22,1 C 22,7 C 21,9 C 0,0 C 66 % 71 % 0 % 1009,1 hPa 0,0 l/m 0,2 km/h (0 Bft) NW 315 0 min 0,0 UV-I 16,4 C 21,9 C 0,0 km/h (0 Bft)
06.07.2014 23:50 22,9 C 27,1 C 22,0 C 22,5 C 21,7 C 0,0 C 66 % 71 % 0 % 1009,1 hPa 0,0 l/m 0,2 km/h (0 Bft) W 270 0 min 0,0 UV-I 16,2 C 21,7 C 1,8 km/h (1 Bft)
06.07.2014 23:55 22,9 C 27,1 C 22,0 C 22,5 C 21,6 C 0,0 C 66 % 71 % 0 % 1009,1 hPa 0,0 l/m 0,2 km/h (0 Bft) N-NO 22 0 min 0,0 UV-I 16,2 C 21,6 C 0,0 km/h (0 Bft)
_ Min-Zeit 06:20 11:05 05:55 05:50 05:40 00:00 15:20 15:20 00:00 20:40 - 00:05 - - - 00:00 06:20 05:40 00:00
Minimum _ 16,8 C 26,2 C 17,3 C 16,9 C 16,4 C 0,0 C 38 % 49 % 0 % 1008,1 hPa - 0,0 km/h (0 Bft) - - - 0,0 UV-I 14,1 C 16,4 C 0,0 km/h (0 Bft)
_ Max-Zeit 16:05 17:05 16:15 18:35 18:35 10:40 05:50 05:50 07:10 09:40 00:00 19:15 - - 07:10 07:35 12:40 18:35 13:20
Maximum _ 33,4 C 27,1 C 29,2 C 37,8 C 37,8 C 10,1 C 84 % 84 % 100 % 1012,2 hPa 0,0 l/m 6,0 km/h
O-SO (2 Bft)
- - 5 min 1,6 UV-I 18,3 C 37,8 C 12,4 km/h
W-SW (3 Bft)
Durchschnitt _ 24,9 C 26,9 C 23,4 C 27,8 C 27,6 C 3,0 C 62 % 69 % 53 % 1010,4 hPa #0,0 l/m 1,4 km/h (1 Bft) O-NO - #11:55 h 0,1 UV-I 16,5 C 27,6 C 2,0 km/h (1 Bft)
2014 www.wetterstation-wechselburg.de